Location: Arrodets-la-Barthe
(43.0306°N, 0.2829°E)
Time: 10:27:39
(UTC+00:00)

BlueWalker 3 - Pass Details

Date: 09 December 2022
Orbit: 499 x 517 km, 53.2° (Epoch: 29 January)

Event Time Altitude Azimuth Distance (km) Brightness Sun altitude
Rises 18:42:33 0° 303° (WNW) 2,625 6.3 -24.5°
Reaches altitude 10° 18:44:47 10° 299° (WNW) 1,732 5.3 -24.9°
Enters shadow 18:48:06 50° 254° (WSW) 649 2.7 -25.5°
